TimeEST,TemperatureF,Dew PointF,Humidity,Sea Level PressureIn,VisibilityMPH,Wind Direction,Wind SpeedMPH,Gust SpeedMPH,PrecipitationIn,Events,Conditions,WindDirDegrees,DateUTC
12:00 AM,69.8,62.6,78,30.09,-9999.0,Calm,Calm,-,N/A,,Clear,0,2013-02-21 05:00:00
2:00 AM,69.8,62.6,78,30.07,-9999.0,NNE,4.6,-,N/A,,Clear,20,2013-02-21 07:00:00
3:00 AM,69.8,62.6,78,30.04,6.2,NNE,4.6,-,N/A,,Partly Cloudy,30,2013-02-21 08:00:00
4:00 AM,72,70,91,30.05,9,East,3.5,,,,Scattered Clouds,90,2013-02-21 09:00:00
4:00 AM,68.0,64.4,88,30.04,6.2,ENE,4.6,-,N/A,,Partly Cloudy,60,2013-02-21 09:00:00
5:00 AM,69.8,64.4,83,30.05,6.2,ENE,4.6,-,N/A,,Partly Cloudy,70,2013-02-21 10:00:00
6:00 AM,69.8,64.4,83,30.06,6.2,East,3.5,-,N/A,,Partly Cloudy,90,2013-02-21 11:00:00
7:00 AM,69,64,78,30.07,8,East,3.5,,,,Scattered Clouds,90,2013-02-21 12:00:00
7:00 AM,68.0,64.4,88,30.07,6.2,East,3.5,-,N/A,,Scattered Clouds,90,2013-02-21 12:00:00
8:00 AM,71.6,64.4,78,30.07,6.2,East,3.5,-,N/A,,Scattered Clouds,90,2013-02-21 13:00:00
9:00 AM,75.2,66.2,73,30.09,6.2,East,8.1,-,N/A,,Scattered Clouds,90,2013-02-21 14:00:00
10:00 AM,79,63,48,30.10,9,ENE,9.2,,,,Scattered Clouds,70,2013-02-21 15:00:00
10:00 AM,78.8,62.6,57,30.09,6.2,ENE,9.2,-,N/A,,Partly Cloudy,70,2013-02-21 15:00:00
11:00 AM,78.8,60.8,54,30.09,6.2,NE,9.2,-,N/A,,Partly Cloudy,50,2013-02-21 16:00:00
12:00 PM,78.8,64.4,61,30.08,6.2,East,10.4,-,N/A,,Partly Cloudy,90,2013-02-21 17:00:00
1:00 PM,82,64,45,30.06,9,ENE,8.1,,,,Scattered Clouds,70,2013-02-21 18:00:00
1:00 PM,82.4,64.4,54,30.06,6.2,ENE,8.1,-,N/A,,Partly Cloudy,70,2013-02-21 18:00:00
2:00 PM,78.8,64.4,61,30.04,6.2,East,8.1,-,N/A,,Partly Cloudy,90,2013-02-21 19:00:00
3:00 PM,77.0,66.2,69,30.06,6.2,NE,9.2,-,N/A,,Partly Cloudy,50,2013-02-21 20:00:00
4:00 PM,80,67,57,30.04,9,NE,6.9,,,,Scattered Clouds,50,2013-02-21 21:00:00
4:00 PM,80.6,68.0,65,30.03,6.2,NE,6.9,-,N/A,,Partly Cloudy,50,2013-02-21 21:00:00
5:00 PM,77.0,66.2,69,30.05,6.2,ENE,5.8,-,N/A,,Scattered Clouds,60,2013-02-21 22:00:00
6:00 PM,75.2,66.2,73,30.06,6.2,NE,8.1,-,N/A,,Mostly Cloudy,40,2013-02-21 23:00:00
7:00 PM,75,68,74,30.08,9,NE,4.6,,,,Mostly Cloudy,50,2013-02-22 00:00:00
7:00 PM,75.2,68.0,78,30.07,6.2,NE,4.6,-,N/A,,Mostly Cloudy,50,2013-02-22 00:00:00
8:00 PM,75.2,68.0,78,30.09,6.2,ENE,6.9,-,N/A,,Mostly Cloudy,60,2013-02-22 01:00:00
9:00 PM,73.4,68.0,83,30.09,6.2,ENE,5.8,-,N/A,,Mostly Cloudy,60,2013-02-22 02:00:00
10:00 PM,74,69,78,30.08,9,ESE,8.1,,,,Mostly Cloudy,110,2013-02-22 03:00:00
10:00 PM,73.4,68.0,83,30.08,6.2,ESE,8.1,-,N/A,,Mostly Cloudy,110,2013-02-22 03:00:00
11:00 PM,73.4,68.0,83,30.08,6.2,ENE,8.1,-,N/A,,Mostly Cloudy,60,2013-02-22 04:00:00